SCOUT A R/B, 2413

Orbit data source: Space-Track

SCOUT A R/B, 2413 is space debris in LEO originally from a launch on Thu, 18 Aug 1966 UTC launched from the Air Force Western Test Range (AFWTR). Debris objects in space refer to the collection of defunct objects orbiting the Earth. Examples of debris include non-operational satellites, rocket bodies, and fragments generated from explosions, collisions, or faulty payload assembly.

Loading next visibility...
Identifier
2413, 1966-076B
Orbit
LEO
Country
Flag of USUS
Related business
Manufacturer
ABL
Mission
Spacecraft
Bus & Motor
ALTAIR, Unknown motor
Mass
33 kg wet, 33 kg dry
Launch date (UTC)
1966-08-18 (60 years ago)
Launch vehicle
Unknown
Launch site
Air Force Western Test Range (AFWTR)
Object type
Payload
Rocket body
Debris
Shape & HBR
Unknown
Radar Cross Section
Medium (>0.1 m² and <1 m²)

Expand to show TLE details & history
Last TLE update: 9 hours ago

TLE from 9 hours ago
0 SCOUT A R/B
1  2413U 66076B   26127.09591388  .00000085  00000-0  11006-3 0  9990
2  2413  88.8456  76.5465 0031966 181.1990 178.9091 13.51866796943102
Epoch: 2026-05-07T02:18Z
TLE epoch observation values (Epoch: 2026-05-07T02:18:06.959Z)
Latitude
0.00006°
Longitude
177.07054°
Altitude
1,092.147 km
Speed
7.294 km/s
True Right ascension
05h 06m 11s
True Declination
0° 00' 00"
Sunlit
Object was in daylight at epoch
Visualization orbit readout
Latitude
Unknown
Longitude
Unknown
Altitude
Unknown
Speed
Unknown
Apparent Right ascension
Unknown
Apparent Declination
Unknown
Sunlit
N/A
Visualization observer readout
Local Sidereal Time
18:55:10
Azimuth
Unknown
Elevation
Unknown
Doppler factor
Unknown
Orbital elements
Apogee altitude
1,086.233 km
Perigee altitude
1,038.664 km
Semi-major axis
7,440.586 km
Eccentricity
0.0032
Inclination
88.8456°
RAAN
76.5465°
Arg. of periapsis
181.199°
True anomaly
178.91605°
Mean anomaly
178.9091°
Eccentric anomaly
178.91258°
Mean motion
3.38168 °/min
Orbital period
106.46 mins
BSTAR
0.00011006
Loading maneuver chart data...
Computing Atmospheric mass density...
Loading historical data...
Loading historical data...
Loading historical data...
Loading historical data...
Loading historical data...
Loading historical data...
Loading historical data...

Documentation

Showing up to 5 results
|